This is the latest recevied weather packets stored in our database for station/object PY2UEP-1. If no packets are shown the sender has not sent any weather packets the latest 10 day(s).
| Time | Temp. | Humidity | Pressure | Rain* | Wind** | Luminosity | Snow |
|---|---|---|---|---|---|---|---|
| 1777509337 | 21.67° C | 82% | 1017 hPa | 0 mm | - | - | - |
| 1777509036 | 21.67° C | 82% | 1016.9 hPa | 0 mm | - | - | - |
| 1777508736 | 21.67° C | 83% | 1016.8 hPa | 0 mm | - | - | - |
| 1777508437 | 22.22° C | 86% | 1016.9 hPa | 0 mm | - | - | - |
| 1777508136 | 22.22° C | 85% | 1016.8 hPa | 0 mm | - | - | - |
| 1777507836 | 22.22° C | 85% | 1016.6 hPa | 0 mm | - | - | - |
| 1777507536 | 22.78° C | 87% | 1016.6 hPa | 0 mm | - | - | - |
| 1777507236 | 22.78° C | 87% | 1016.3 hPa | 0 mm | - | - | - |
| 1777506936 | 22.78° C | 87% | 1016.2 hPa | 0 mm | - | - | - |
| 1777506637 | 23.33° C | 88% | 1016.2 hPa | 0 mm | - | - | - |
| 1777506336 | 23.33° C | 87% | 1016.1 hPa | 0 mm | - | - | - |
| 1777506036 | 23.33° C | 86% | 1016.1 hPa | 0 mm | - | - | - |
| 1777505737 | 23.89° C | 85% | 1016.1 hPa | 0 mm | - | - | - |
| 1777505436 | 23.89° C | 85% | 1016.1 hPa | 0 mm | - | - | - |
| 1777505136 | 23.89° C | 84% | 1016 hPa | 0 mm | - | - | - |
| 1777504837 | 23.89° C | 83% | 1016 hPa | 0 mm | - | - | - |
| 1777504536 | 24.44° C | 83% | 1015.7 hPa | 0 mm | - | - | - |
| 1777504236 | 24.44° C | 82% | 1015.7 hPa | 0 mm | - | - | - |
| 1777503936 | 24.44° C | 81% | 1015.7 hPa | 0 mm | - | - | - |
| 1777503636 | 24.44° C | 80% | 1015.7 hPa | 0 mm | - | - | - |
| 1777503336 | 24.44° C | 79% | 1015.7 hPa | 0 mm | - | - | - |
| 1777503036 | 24.44° C | 79% | 1015.5 hPa | 0 mm | - | - | - |
| 1777502736 | 25° C | 78% | 1015.7 hPa | 0 mm | - | - | - |
| 1777502437 | 25° C | 77% | 1015.7 hPa | 0 mm | - | - | - |
| 1777502136 | 25.56° C | 75% | 1015.7 hPa | 0 mm | - | - | - |
* Rain since midnight (hover to see other rain measurements)
** Current wind speed in m/s (hover to see current wind gust speed)